Location: Enborne
(51.3833°N, 1.3667°W)
Time: 14:03:49
(UTC+00:00)

Cosmos 1844 Rocket - Pass Details

Date: 22 January 2021
Orbit: 826 x 843 km, 71.0° (Epoch: 05 March)

Event Time Altitude Azimuth Distance (km) Brightness Sun altitude
Rises 19:17:23 0° 224° (SW) 3,391 6.5 -24.4°
Reaches altitude 10° 19:19:53 10° 229° (SW) 2,459 5.7 -24.8°
Maximum altitude 19:25:25 54° 306° (NW) 1,014 3.3 -25.7°
Enters shadow 19:28:21 27° 12° (NNE) 1,562 3.9 -26.1°
